Location: Bluejay Creek
(37.7819°N, 119.6118°W)
Time: 22:03:11
(UTC+00:00)

SL-16 R/B - Pass Details

Date: 05 August 2024
Orbit: 985 x 1006 km, 99.7° (Epoch: 08 September)

Event Time Altitude Azimuth Distance (km) Brightness Sun altitude
Exits shadow 12:15:27 12° 230° (SW) 2,624 4.1 -9.8°
Maximum altitude 12:18:57 18° 267° (W) 2,220 3.9 -9.2°
Drops below altitude 10° 12:22:58 10° 308° (NW) 2,746 4.6 -8.5°
Sets 12:26:22 0° 327° (NNW) 3,701 5.5 -7.9°
